Regional Weather Roundup
Issued by NWS

Home | Current Version | Previous Version | Text Only | Print | Product List | Glossary On
Versions: 1 2 3 4 5 6 7 8 9 10 11 12 13 14 15 16 17 18 19 20 21 22 23 24 25 26 27 28 29 30 31 32 33 34 35 36 37 38 39 40 41 42 43 44 45 46 47 48 49 50
000
ASUS45 KTFX 260119
RWRMT
MONTANA HOURLY WEATHER ROUNDUP
NATIONAL WEATHER SERVICE GREAT FALLS MT
619 PM MST SUN JAN 25 2015

NOTE: "FAIR" INDICATES FEW OR NO CLOUDS BELOW 12000 FEET WITH NO
SIGNIFICANT WEATHER AND/OR OBSTRUCTIONS TO VISIBILITY.

* THESE STATIONS ARE NOT UNDER NWS QUALITY CONTROL. THEY DO NOT
   REPORT WEATHER SUCH AS PRECIPITATION OR FOG.

MTZ001>007-043-260200-
WEST OF THE DIVIDE
CITY           SKY/WX    TMP DP  RH WIND       PRES   REMARKS
KALISPELL      CLOUDY    36  32  85 CALM      30.17R
MISSOULA       CLOUDY    39  34  82 NW5       30.22R WCI  35
BUTTE          CLOUDY    45  27  49 SE3       30.28R
MULLAN PASS    PTCLDY    41  28  60 S6        30.25S
* ANACONDA     PTCLDY    50  27  41 S10G17     N/A
* ESSEX        N/A       36  33  89 S1G7       N/A
* EUREKA APT   CLOUDY    46  34  63 SE6       30.15R
* HAMILTON APT PTCLDY    57  23  27 SW6       30.23R
* LIBBY APT    CLOUDY    39  34  82 CALM      30.19R
* LINCOLN      N/A       49  28  44 S3G11      N/A
* LOOKOUT PASS N/A       40  34  79 N/A        N/A
* POLSON       N/A       45  32  60 SE2        N/A
* RONAN APT    CLOUDY    43  43 100 N/A        N/A
* SEELEY LAKE  N/A       41  30  65 NE2        N/A
* THOMP F APT  PTCLDY    29  26  89 E3         N/A
$$

MTZ008-052>055-260200-
SOUTHWEST MONTANA
CITY           SKY/WX    TMP DP  RH WIND       PRES   REMARKS
BOZEMAN        CLOUDY    43  30  60 CALM      30.23R
DILLON         CLOUDY    45  28  51 S10       30.29R
* W YELLOWSTON CLOUDY    31  29  92 SW3G8      N/A
* THREE FORKS  CLOUDY    45  32  60 N/A        N/A
* BOULDER HILL N/A       48  25  41 SE4G9      N/A
* MONIDA PASS  N/A       26  26 100 SE19       N/A   WCI  12
* RAYNOLDS PAS N/A       30  12  47 SE26       N/A   WCI  16
* WHITEHALL    N/A       56  26  32 SW14G23    N/A
* WISE RIVER   N/A       47  25  42 W8G18      N/A
$$

MTZ009>010-012-014-046-048-049-054-260200-
EAST SLOPES AND CENTRAL MONTANA
CITY           SKY/WX    TMP DP  RH WIND       PRES   REMARKS
CUT BANK       CLOUDY    48  30  50 W22       30.00R
GREAT FALLS    CLOUDY    52  30  43 SW16      30.06R
HELENA         CLOUDY    46  32  58 CALM      30.19R
MALMSTROM AFB  CLOUDY    54  32  43 SW18      30.06R
* CONRAD       CLOUDY    54  36  51 SW17G24    N/A
* DEARBORN     N/A       59  29  32 NE2G10     N/A
* EAST GLACIER N/A       48  28  46 SW17G32    N/A
* MONARCH      N/A       49  23  36 SW12G20    N/A
* PENDROY      N/A       51  30  45 W15        N/A
* ROGERS PASS  N/A       47  26  44 SE12G26    N/A
* SWEET GRASS  N/A       48  32  54 W12        N/A
* WHITE SULPH  N/A       43  28  56 SE2G7      N/A
$$

MTZ011-013-016-021-035-040-045-047-050-051-260200-
NORTH CENTRAL MONTANA
CITY           SKY/WX    TMP DP  RH WIND       PRES   REMARKS
HAVRE          MOCLDY    48  36  63 SW21      29.93R
LEWISTOWN      CLOUDY    46  30  54 W17       30.02R
* N BAR RANCH  CLEAR     55  28  35 NW30G39   29.98R
* CHINOOK      PTCLDY    48  36  63 W10       29.90S
* CHESTER      N/A       45  33  63 SE4        N/A
* DENTON       N/A       51  30  45 W28G35     N/A
* GEYSER       N/A       54  26  34 SW19G30    N/A
* JUDITH GAP   N/A       49  27  43 S16G22     N/A
* LOMA         N/A       52  36  55 SW14G20    N/A
$$

MTZ017>020-022>027-061-062-260200-
NORTHEAST MONTANA
CITY           SKY/WX    TMP DP  RH WIND       PRES   REMARKS
GLASGOW        MOCLDY    45  36  71 W6        29.87R
GLENDIVE       MOCLDY    39  34  82 W9        29.89R WCI  33
JORDAN         PTCLDY    39  34  82 W6        29.90R WCI  35
SIDNEY         MOCLDY    36  30  79 S9        29.85S WCI  29
WOLF POINT     PTCLDY    36  32  85 W6        29.85S WCI  31
* BEAVER HILL  N/A       42  35  76 S13        N/A
* CIRCLE       N/A       44  39  83 W2         N/A
* LINDSAY DVD  N/A       46  37  71 W14G20     N/A
* NAVAJO       N/A       39  33  79 W20        N/A   WCI  29
* PLENTYWOOD A MOCLDY    37  34  89 W8        29.79S WCI  31
* POPLAR APT   PTCLDY    37  34  89 N/A       29.83S
* SACO         N/A       42  35  76 W8         N/A
* SCOBEY APT   PTCLDY    39  30  70 N/A        N/A
$$

MTZ028>042-056>058-260200-
SOUTHCENTRAL AND SOUTHEAST MONTANA
CITY           SKY/WX    TMP DP  RH WIND       PRES   REMARKS
BAKER          CLOUDY    39  34  82 W10       29.91S WCI  32
BILLINGS       CLOUDY    59  27  29 SW13G25   30.03S
LIVINGSTON     CLOUDY    55  27  34 SW28G35   30.15R
MILES CITY     PTCLDY    43  34  71 W9        29.92S
* BIG TIMBER A CLOUDY    55  27  34 W31G39    30.09R
* FORSYTH APT  CLOUDY    54  37  53 W3        29.96R
* LAUREL APT   CLOUDY    59  27  29 W21G28     N/A
* ROUNDUP APT  CLOUDY    55  27  34 SW21G28    N/A
* ALZADA       N/A       43  33  68 SW9        N/A
* HYSHAM       N/A       52  28  40 W6G12      N/A
* LAME DEER    N/A       48  31  52 W12        N/A
* REED POINT   N/A       60  31  33 W26G34     N/A
* ROSCOE HILL  N/A       59  17  19 SW11G30    N/A
$$

REGIONAL REPORTS...DAKOTAS
CITY           SKY/WX    TMP DP  RH WIND       PRES   REMARKS
WILLISTON      MOCLDY    39  32  76 SW7       29.78F WCI  34
DICKINSON      MOCLDY    43  32  65 SW15      29.83S
BEACH          CLEAR     39  36  89 W12       29.87F WCI  32
CROSBY         CLEAR     37  36  96 SW20G25   29.74F WCI  27
TIOGA          CLEAR     37  36  96 SW16      29.78F WCI  28
WATFORD CITY   CLEAR     37  32  82 SW15      29.78F WCI  28
BISMARCK       CLOUDY    36  32  85 SW5       29.88F WCI  32
GRAND FORKS    CLOUDY    27  19  72 S13       29.91F WCI  16
FARGO          CLOUDY    27  18  69 S10       29.97F WCI  18
BUFFALO SD     CLEAR     41  34  76 W12       29.86R
RAPID CITY     PTCLDY    36  21  54 CALM      29.95S
$$

REGIONAL REPORTS...WYOMING/IDAHO/WASHINGTON
CITY           SKY/WX    TMP DP  RH WIND       PRES   REMARKS
GILLETTE       CLEAR     43  30  60 W12       30.03R
SHERIDAN       CLEAR     48  28  46 NW6       30.04R
CODY           MOCLDY    55  25  31 W13       30.15R
YELLOWSTONE LA CLOUDY    30  27  89 CALM      30.44S
SALMON         CLOUDY    28  25  89 CALM      30.39R
MULLAN PASS    PTCLDY    41  28  60 S6        30.25S
SAND POINT     FOG       37  37 100 CALM      30.22R
SPOKANE        FOG       41  41 100 NE6       30.19R VSB M1/4
$$

REGIONAL REPORTS...ALBERTA
CITY           SKY/WX    TMP DP  RH WIND       PRES   REMARKS
CALGARY        FAIR      48  34  59 N7        29.89R
LETHBRIDGE     MOCLDY    57  28  33 W25G33    29.90R
MEDICINE HAT   PTCLDY    48  36  63 SW3       29.84S
EDMONTON       MOCLDY    43  27  53 W7        29.80S
WATERTON GATE  N/A       55  25  31 SW20G31    N/A
CARDSTON       N/A       54  30  40 SW2        N/A
MILK RIVER     N/A       52  32  47 SW14G20    N/A
$$

REGIONAL REPORTS...SASKATCHEWAN
CITY           SKY/WX    TMP DP  RH WIND       PRES   REMARKS
SWIFT CURRENT  PTCLDY    39  36  89 SW9       29.82R WCI  33
REGINA         PTCLDY    39  34  82 W16       29.72R WCI  30
VAL MARIE      N/A       37  34  89 NW2        N/A
ASSINIBOIA     N/A       39  34  82 W14        N/A   WCI  31
CORONACH       N/A       41  34  76 W15G21     N/A

$$




USA.gov is the U.S. government's official web portal to all federal, state and local government web resources and services.